SCP
0 0 0 0 0 0 0 0 0 0 0 0 0 0 0 0 0 0 0 0 0 0 0 0 0 0 0 0 0 0 0 0 0 0 0 0 0 0 0 0 0 0 0
0 0 0 0 0 0 0 0 0 0 0 0 0 0 0 0 0 0 0 0 0 0 0 0 0 0 0 0 0 0 0 0 0 0 0 0 0 0 0 0 0 0 0
0 0 0 0 0 0 0 0 0 0 0 0 0 0 0 0 0 0 0 0 0 0 0 0 0 0 0 0 0 0 0 0 0 0 0 0 0 0 0 0 0 0 0
0 0 0 0 0 0 0 0 0 0 0 0 0 0 0 0 0 0 0 0 0 0 0 0 0 0 0 0 0 0 0 0 0 0 0 0 0 0 0 0 0 0 0
0 0 0 0 0 0 0 0 0 0 0 0 0 0 0 0 0 0 0 0 0 0 0 0 0 0 0 0 0 0 0 0 0 0 0 0 0 0 0 0 0 0 0
0 0 0 0 0 0 0 0 0 0 0 0 0 0 0 0 0 0 0 0 0 0 0 0 0 0 0 0 0 0 0 0 0 0 0 0 0 0 0 0 0 0 0
0 0 0 0 0 0 0 0 0 0 0 0 0 0 0 0 0 0 0 0 0 0 0 0 0 0 0 0 0 0 0 0 0 0 0 0 0 0 0 0 0 0 0
0 0 0 0 0 0 0 0 0 0 0 0 0 0 0 0 0 0 0 0 0 0 0 0 0 0 0 0 0 0 0 0 0 0 0 0 0 0 0 0 0 0 0
0 0 0 0 0 0 0 0 0 0 0 0 0 0 0 0 0 0 0 0 0 0 0 0 0 0 0 0 0 0 0 0 0 0 0 0 0 0 0 0 0 0 0
0 0 0 0 0 0 0 0 0 0 0 0 0 0 0 0 0 0 0 0 0 0 0 0 0 0 0 0 0 0 0 0 0 0 0 0 0 0 0 0 0 0 0
0 0 0 0 0 0 0 0 0 0 0 0 0 0 0 0 0 0 0 0 0 0 0 0 0 0 0 0 0 0 0 0 0 0 0 0 0 0 0 0 0 0 0
0 0 0 0 0 0 0 0 0 0 0 0 0 0 0 0 0 0 0 0 0 0 0 0 0 0 0 0 0 0 0 0 0 0 0 0 0 0 0 0 0 0 0
0 0 0 0 0 0 0 0 0 0 0 0 0 0 0 0 0 0 0 0 0 0 0 0 0 0 0 0 0 0 0 0 0 0 0 0 0 0 0 0 0 0 0
0 0 0 0 0 0 0 0 0 0 0 0 0 0 0 0 0 0 0 0 0 0 0 0 0 0 0 0 0 0 0 0 0 0 0 0 0 0 0 0 0 0 0
0 0 0 0 0 0 0 0 0 0 0 0 0 0 0 0 0 0 0 0 0 0 0 0 0 0 0 0 0 0 0 0 0 0 0 0 0 0 0 0 0 0 0
0 0 0 0 0 0 0 0 0 0 0 0 0 0 0 0 0 0 0 0 0 0 0 0 0 0 0 0 0 0 0 0 0 0 0 0 0 0 0 0 0 0 0
0 0 0 0 0 0 0 0 0 0 0 0 0 0 0 0 0 0 0 0 0 0 0 0 0 0 0 0 0 0 0 0 0 0 0 0 0 0 0 0 0 0 0
0 0 0 0 0 0 0 0 0 0 0 0 0 0 0 0 0 0 0 0 0 0 0 0 0 0 0 0 0 0 0 0 0 0 0 0 0 0 0 0 0 0 0
0 0 0 0 0 0 0 0 0 0 0 0 0 0 0 0 0 0 0 0 0 0 0 0 0 0 0 0 0 0 0 0 0 0 0 0 0 0 0 0 0 0 0
0 0 0 0 0 0 0 0 0 0 0 0 0 0 0 0 0 0 0 0 0 0 0 0 0 0 0 0 0 0 0 0 0 0 0 0 0 0 0 0 0 0 0
0 0 0 0 0 0 0 0 0 0 0 0 0 0 0 0 0 0 0 0 0 0 0 0 0 0 0 0 0 0 0 0 0 0 0 0 0 0 0 0 0 0 0
0 0 0 0 0 0 0 0 0 0 0 0 0 0 0 0 0 0 0 0 0 0 0 0 0 0 0 0 0 0 0 0 0 0 0 0 0 0 0 0 0 0 0
0 0 0 0 0 0 0 0 0 0 0 0 0 0 0 0 0 0 0 0 0 0 0 0 0 0 0 0 0 0 0 0 0 0 0 0 0 0 0 0 0 0 0
0 0 0 0 0 0 0 0 0 0 0 0 0 0 0 0 0 0 0 0 0 0 0 0 0 0 0 0 0 0 0 0 0 0 0 0 0 0 0 0 0 0 0
0 0 0 0 0 0 0 0 0 0 0 0 0 0 0 0 0 0 0 0 0 0 0 0 0 0 0 0 0 0 0 0 0 0 0 0 0 0 0 0 0 0 0
0 0 0 0 0 0 0 0 0 0 0 0 0 0 0 0 0 0 0 0 0 0 0 0 0 0 0 0 0 0 0 0 0 0 0 0 0 0 0 0 0 0 0
Wind_Speed
13 12 12 12 11 11 11 12 12 12 13 14 13 12 12 11 9 9 8 9 9 8 7 8 7 5 4 3 3 3 3 3 3 3 3 2 3 4 6 5 6 6 8
13 12 13 13 13 13 13 12 12 13 13 13 13 13 12 11 10 11 11 10 10 11 9 8 8 6 6 4 4 4 3 4 4 4 3 2 4 4 5 6 6 7 7
13 13 14 15 15 16 15 14 13 13 12 12 12 13 13 12 11 10 10 10 9 9 10 10 9 8 7 5 5 5 4 4 4 4 4 3 3 4 5 6 6 5 7
14 15 16 17 17 16 15 15 14 14 14 14 13 12 12 12 11 10 10 9 8 8 8 8 9 9 9 8 6 6 5 5 4 5 5 4 4 4 4 5 7 5 7
15 16 16 14 14 14 15 15 14 14 14 13 12 11 10 10 10 11 10 10 9 8 7 7 8 8 11 9 7 6 6 5 4 5 5 4 4 3 3 4 8 9 8
16 16 13 14 15 15 15 15 15 14 12 12 13 13 12 10 17 20 13 10 10 10 9 8 7 8 10 15 15 13 11 8 7 5 4 6 6 4 4 5 7 8 7
15 14 14 15 16 16 15 15 16 16 13 13 13 12 13 14 21 21 19 10 10 9 9 8 7 8 9 8 11 15 14 17 15 8 7 8 6 4 5 7 7 7 8
14 13 13 15 15 15 16 17 16 13 14 14 13 13 12 14 21 21 19 10 8 8 9 9 9 8 10 10 8 8 9 10 11 8 8 7 6 5 6 7 7 7 7
14 14 14 14 15 15 17 17 13 12 12 12 12 13 12 13 20 20 19 8 8 9 9 9 10 9 15 16 10 10 10 10 14 17 16 14 15 14 10 4 3 4 7
15 12 11 12 13 14 14 12 9 10 10 10 10 10 11 10 17 20 20 7 8 8 7 9 13 13 16 18 12 10 12 10 7 7 9 11 8 8 11 6 4 4 4
8 8 9 10 10 9 8 7 8 7 8 8 8 7 8 9 14 20 21 10 10 9 8 9 10 19 20 20 18 12 16 10 6 7 6 5 4 4 5 5 5 5 5
8 9 9 9 8 8 9 8 8 9 9 8 7 6 5 7 10 16 23 22 17 11 10 8 9 18 20 20 16 17 19 13 5 5 5 6 5 5 5 5 6 7 7
9 8 8 9 8 9 10 10 9 9 8 8 8 8 7 7 10 20 22 25 25 15 10 15 15 18 17 14 18 19 12 6 5 6 7 6 5 5 4 4 5 5 7
8 8 8 8 8 8 7 8 9 9 9 9 9 9 8 7 8 8 9 10 16 16 12 11 16 18 16 12 8 10 6 6 6 7 5 4 3 3 4 4 3 3 4
7 7 6 6 7 7 6 6 8 7 9 10 8 8 8 9 11 15 10 8 8 9 5 3 4 4 6 5 5 5 4 4 5 4 4 4 4 4 4 4 3 3 3
7 6 5 4 4 4 5 3 6 6 9 13 11 9 7 11 11 15 18 18 18 16 9 6 7 7 8 7 7 5 5 6 5 5 5 4 4 4 4 4 4 4 5
6 5 4 4 4 4 4 5 3 3 4 7 9 10 10 10 12 12 13 14 14 15 10 7 7 6 6 5 5 5 4 4 4 4 4 4 4 4 4 4 4 4 5
5 5 4 3 3 3 3 3 3 4 3 1 2 4 5 6 7 8 9 8 6 7 6 5 5 5 4 4 4 4 3 3 3 3 3 3 3 3 4 4 4 5 5
5 4 3 3 3 3 2 2 2 2 2 1 0 2 3 2 2 2 3 3 3 3 3 3 3 3 3 3 3 3 3 3 3 3 3 3 3 3 4 4 4 5 5
5 6 5 4 3 3 2 2 2 2 2 2 2 1 1 1 0 1 1 1 1 2 2 2 2 2 2 3 3 3 3 3 3 3 3 3 3 4 5 5 4 4 4
4 5 5 4 3 3 2 2 2 2 2 1 1 2 3 2 1 1 1 1 1 2 2 2 2 2 2 2 3 3 4 4 4 4 4 4 4 4 4 4 4 4 4
4 4 4 3 3 3 2 2 2 2 1 1 0 1 1 1 1 1 1 1 1 1 1 2 2 2 3 3 3 4 4 4 4 4 4 4 4 4 4 4 4 4 4
4 4 4 4 3 3 3 2 2 1 1 1 0 0 0 0 1 1 2 2 2 2 2 2 2 3 3 3 4 4 5 5 5 5 5 5 4 4 4 5 5 5 5
4 4 4 3 3 2 2 1 1 1 0 1 1 1 2 2 2 3 3 2 2 2 2 3 3 5 6 4 4 4 4 5 4 5 7 6 5 5 4 5 5 6 6
4 3 3 2 2 1 1 0 0 1 1 2 2 2 3 3 3 3 3 3 4 4 4 4 4 5 6 7 6 6 7 9 7 5 5 5 6 6 5 6 5 5 5
3 2 2 1 1 0 1 1 2 2 3 3 3 3 4 4 4 4 4 4 4 4 5 4 6 7 7 7 8 9 10 11 11 10 7 6 7 6 6 5 6 6 6
Wind_Direction
181 179 176 177 174 171 175 173 168 162 160 162 160 156 156 153 150 146 148 150 145 142 143 143 142 142 140 141 140 144 154 156 210 264 261 266 275 275 300 291 293 297 308
180 178 178 175 174 177 178 175 170 167 167 165 162 160 162 161 160 160 160 163 159 158 158 154 155 155 155 159 163 174 180 184 197 249 268 266 262 269 286 297 308 308 304
179 180 179 180 182 183 180 175 173 171 168 167 167 169 169 167 168 170 168 169 170 167 166 167 167 166 173 176 182 189 193 201 202 230 264 262 270 279 301 299 295 284 301
182 184 187 187 186 184 179 177 177 175 173 174 175 174 171 169 171 171 172 172 170 170 172 174 174 180 183 182 191 199 197 205 211 234 256 268 270 278 295 312 315 310 312
187 192 194 187 184 181 180 179 178 179 179 176 173 172 170 172 176 175 177 176 175 175 179 184 187 188 197 194 197 197 196 204 212 230 252 268 275 290 301 306 310 315 310
193 196 188 182 182 183 182 179 178 179 178 175 179 177 178 184 188 188 181 181 181 183 189 193 194 195 208 215 220 216 207 204 208 216 237 255 269 270 281 295 306 317 317
196 192 185 183 185 184 180 179 182 182 177 180 182 182 186 191 191 193 192 182 186 193 194 192 199 205 203 215 229 234 233 232 225 214 232 246 257 255 277 290 289 290 290
195 192 187 184 185 180 180 185 185 181 183 184 184 186 187 195 196 197 195 189 194 201 201 199 203 204 204 206 214 230 237 240 242 243 241 245 240 245 252 271 288 294 288
195 195 189 184 182 182 186 188 184 180 184 185 184 184 187 195 199 199 194 189 204 213 211 207 210 213 218 216 214 227 240 245 249 246 246 249 256 264 269 278 291 300 298
197 191 180 179 182 186 187 182 176 178 181 178 181 186 190 193 201 202 200 196 210 218 216 217 217 220 224 222 218 220 238 242 224 236 249 259 262 266 270 261 242 250 271
169 160 165 173 178 175 169 162 160 163 163 171 176 183 190 197 207 209 209 205 213 218 221 223 224 227 229 229 227 224 237 240 214 219 229 233 234 236 240 239 234 236 247
143 151 158 160 158 155 157 155 157 163 169 176 180 190 199 200 208 219 221 221 218 221 228 227 225 230 233 235 235 238 244 244 222 215 226 229 228 231 232 232 237 242 249
138 146 149 150 153 157 161 163 165 172 181 187 192 205 211 206 219 225 228 230 230 227 231 233 233 237 238 241 242 243 240 228 220 227 234 233 222 222 220 229 238 247 259
137 140 143 150 155 159 165 170 177 183 190 194 200 211 214 210 210 214 221 231 236 238 239 237 240 242 241 231 231 242 231 217 220 232 235 224 198 199 214 217 228 241 263
122 127 136 145 153 160 167 180 186 194 199 198 203 205 208 219 220 211 205 214 217 226 222 220 220 221 226 225 221 216 212 208 220 227 227 221 215 219 225 215 220 220 236
120 126 134 139 145 153 160 165 206 201 212 221 218 211 220 228 230 226 224 224 225 224 216 221 224 224 227 227 225 221 212 217 221 223 224 226 228 229 233 221 218 223 247
115 125 127 134 143 151 158 168 177 201 216 227 229 230 229 227 231 231 231 228 227 222 219 218 220 221 224 223 222 221 221 217 214 219 226 226 227 231 233 235 232 236 249
88 98 108 121 133 144 155 163 167 172 181 222 273 247 242 240 234 229 228 223 228 224 221 217 211 208 208 210 214 218 221 212 212 221 226 227 223 226 233 239 237 236 249
76 79 85 93 99 110 121 130 141 159 170 170 38 350 336 272 247 238 225 209 210 215 214 210 202 195 196 200 203 205 207 211 211 212 219 222 221 222 237 242 243 243 245
65 73 81 89 92 97 105 121 135 150 161 171 190 221 327 43 195 258 219 185 178 187 182 185 187 192 191 193 192 193 201 209 211 214 220 222 220 222 235 239 237 238 240
63 66 71 77 81 91 100 114 129 142 157 170 209 242 211 180 193 188 179 179 187 192 190 191 196 201 201 194 192 199 207 215 214 214 218 220 217 222 229 233 236 237 244
66 67 67 74 76 77 81 88 101 117 138 154 225 321 320 115 163 199 214 220 223 213 196 197 210 210 204 201 202 205 212 217 216 214 218 220 219 222 224 226 230 237 239
62 68 66 62 64 73 72 68 79 95 110 123 139 18 351 253 235 238 241 241 233 228 212 205 218 228 223 216 208 205 212 219 214 206 210 216 218 219 217 223 227 231 237
57 63 68 65 62 63 67 62 58 77 150 213 236 241 242 242 245 247 247 246 244 242 230 221 225 235 238 232 223 220 224 228 215 209 208 213 217 218 216 223 228 231 239
53 56 57 57 58 57 47 19 315 280 261 252 247 249 249 247 248 249 247 244 245 245 243 234 230 235 241 240 236 232 239 246 236 209 202 207 216 216 216 222 226 229 232
47 47 42 33 12 297 263 261 260 257 255 254 250 247 247 247 248 247 244 242 243 244 245 238 235 238 242 243 244 244 241 241 236 222 202 202 210 217 213 220 223 226 231